Pick Your Poison 2016 | Zone4.ca

Pick Your Poison 2016

Date: Apr 30, 2016
Unofficial  Results
Location: Heights of Horseshoe
Host Club: 

Jury
Technical Delegate:   
Chief of Competition:   
Chief of Course:   
Coach:   
Coach:   
Obs. Time:
Wind Vel:   Wind Dir:
Air Temp: Snow Temp:
Weather: Snow Cond:

12.5 km Male 12.5 km. Mass Start    
PL Bib Name Time Diff
1 422 Adriaan Vandermeer 0:54:38.0  
2 440 Mike Tickner 0:57:09.6 +2:31.6
3 434 Scott O'Connor 0:59:32.8 +4:54.8
4 425 Tim Hurley 1:02:42.2 +8:04.2
5 408 Cameron Ferrier 1:06:45.8 +12:07.8
6 437 Keith Mercer 1:08:46.1 +14:08.1
7 417 Shawn Patton 1:08:49.6 +14:11.6
8 412 Michael McDonough 1:09:02.8 +14:24.8
9 413 Dan Large 1:10:08.4 +15:30.4
10 409 Pat Burke 1:10:38.1 +16:00.1
11 410 Ryan Travers 1:11:05.4 +16:27.4
12 402 Ryan Ladner 1:12:38.2 +18:00.2
13 431 Matt Shafer 1:13:11.3 +18:33.3
14 414 Phil Bruneau 1:13:14.8 +18:36.8
15 398 Jamie Gregory 1:14:38.8 +20:00.8
16 426 Kevin Stevenson 1:15:49.9 +21:11.9
17 439 Jared Baxter 1:20:07.7 +25:29.7
18 405 Peter Lynch 1:20:19.6 +25:41.6
19 415 Yuriy Buryachenko 1:22:52.4 +28:14.4
20 397 Michael Summers 1:24:16.5 +29:38.5
21 427 Andre Fortin 1:25:20.9 +30:42.9
22 424 Colin Woodford 1:25:37.1 +30:59.1
23 403 Adam Whittal 1:30:01.7 +35:23.7
24 418 Shawn Johnstone 1:30:02.8 +35:24.8
25 435 Robb MacDonald 1:33:39.6 +39:01.6
26 428 Murray Wood 1:34:14.1 +39:36.1
27 423 Greg Morton 1:37:59.9 +43:21.9
28 416 Ntb Phillips 1:38:13.6 +43:35.6
29 421 Glenn Shaw 1:38:51.2 +44:13.2
30 438 Jason Chevrier 1:41:49.1 +47:11.1
31 436 Don Ruggles 1:41:51.1 +47:13.1
32 444 Doug Parker 1:43:50.4 +49:12.4
33 429 Kalin Weatherhead 1:49:18.3 +54:40.3
34 430 Jake Weatherhead 1:49:18.5 +54:40.5
35 404 Jason Carpenter 1:53:54.2 +59:16.2
36 432 Mike Elchyshyn 1:55:17.4 +1:00:39.4
37 433 Bob Hum 1:55:34.6 +1:00:56.6
38 396 Keith Davidson 1:56:12.1 +1:01:34.1
39 419 John Rumney 2:04:32.4 +1:09:54.4
40 400 Darren Fairchild 2:06:43.2 +1:12:05.2
41 445 Warren Raymond 2:21:31.2 +1:26:53.2
42 446 Scott Harris 3:01:07.9 +2:06:29.9
43 420 Ka Wah Soo 3:05:31.5 +2:10:53.5
44 450 Joseph Hurban 3:08:27.9 +2:13:49.9


Results are posted through an automated system by licenced clubs. For inquires about result corrections please contact the race organizer.

Copyright 2019 - Zone4 Systems zone4.ca       Privacy Policy     Delivery/Refund Policy     Terms of Service    Contact Zone4